• En España
  • Lista de países
  • Para 7 días
  • Temperatura del agua
  • Mapa Satelital
  • El tiempo en el mapa
  • Informadores
  • user-avatar
    Iniciar sesión

    Tiempo cada hora Berdibyakovo

    Hoy, 22 Junio, Viernes

    Tiempo Temperatura Precipitaciones Viento Presión Humedad
    00:00 +13°C° 0 mm 5 mps 745 mmHg 74%
    01:00 +13°C° 0 mm 5 mps 745 mmHg 73%
    02:00 +13°C° 0 mm 5 mps 745 mmHg 72%
    03:00 +11°C° 0 mm 6 mps 746 mmHg 70%
    04:00 +13°C° 0 mm 6 mps 746 mmHg 72%
    05:00 +13°C° 0 mm 6 mps 746 mmHg 74%
    06:00 +14°C° 0 mm 6 mps 747 mmHg 75%
    07:00 +15°C° 0 mm 6 mps 747 mmHg 73%
    08:00 +16°C° 0 mm 7 mps 747 mmHg 70%
    09:00 +17°C° 0 mm 7 mps 748 mmHg 67%
    10:00 +18°C° 0 mm 7 mps 748 mmHg 64%
    11:00 +20°C° 0 mm 7 mps 748 mmHg 61%
    12:00 +21°C° 0 mm 7 mps 749 mmHg 58%
    13:00 +22°C° 0 mm 6 mps 749 mmHg 58%
    14:00 +22°C° 0 mm 6 mps 749 mmHg 57%
    15:00 +22°C° 0 mm 6 mps 749 mmHg 57%
    16:00 +22°C° 0 mm 5 mps 749 mmHg 61%
    17:00 +21°C° 0 mm 4 mps 749 mmHg 65%
    18:00 +21°C° 0 mm 3 mps 749 mmHg 69%
    19:00 +19°C° 0 mm 3 mps 750 mmHg 73%
    20:00 +17°C° 0 mm 2 mps 750 mmHg 76%
    21:00 +16°C° 0 mm 2 mps 750 mmHg 79%
    22:00 +15°C° 0 mm 2 mps 750 mmHg 80%
    23:00 +15°C° 0 mm 2 mps 750 mmHg 81%

    Mañana, 23 Junio, Sábado

    Tiempo Temperatura Precipitaciones Viento Presión Humedad
    00:00 +14°C° 0 mm 2 mps 750 mmHg 82%
    01:00 +14°C° 0 mm 2 mps 751 mmHg 83%
    02:00 +14°C° 0 mm 2 mps 751 mmHg 85%
    03:00 +14°C° 0 mm 2 mps 751 mmHg 86%
    04:00 +15°C° 0 mm 2 mps 751 mmHg 85%
    05:00 +16°C° 0 mm 2 mps 751 mmHg 83%
    06:00 +18°C° 0 mm 2 mps 751 mmHg 82%
    07:00 +20°C° 0 mm 2 mps 751 mmHg 78%
    08:00 +23°C° 0 mm 2 mps 751 mmHg 74%
    09:00 +24°C° 0 mm 3 mps 751 mmHg 71%
    10:00 +25°C° 0,1 mm 3 mps 751 mmHg 69%
    11:00 +26°C° 0,1 mm 3 mps 751 mmHg 67%
    12:00 +27°C° 0,1 mm 3 mps 751 mmHg 65%
    13:00 +27°C° 0,2 mm 3 mps 751 mmHg 65%
    14:00 +27°C° 0,2 mm 3 mps 751 mmHg 65%
    15:00 +28°C° 0,2 mm 3 mps 750 mmHg 66%
    16:00 +27°C° 0,4 mm 3 mps 750 mmHg 70%
    17:00 +27°C° 0,4 mm 2 mps 750 mmHg 75%
    18:00 +26°C° 0,4 mm 1 mps 750 mmHg 80%
    19:00 +25°C° 0 mm 1 mps 750 mmHg 82%
    20:00 +23°C° 0 mm 1 mps 750 mmHg 85%
    21:00 +22°C° 0 mm 1 mps 751 mmHg 87%
    22:00 +22°C° 0 mm 1 mps 751 mmHg 88%
    23:00 +21°C° 0 mm 1 mps 751 mmHg 89%

    Pasado mañana, 24 Junio, Domingo

    Tiempo Temperatura Precipitaciones Viento Presión Humedad
    00:00 +21°C° 0 mm 1 mps 751 mmHg 90%
    01:00 +20°C° 0 mm 1 mps 751 mmHg 91%
    02:00 +20°C° 0 mm 1 mps 751 mmHg 92%
    03:00 +20°C° 0 mm 1 mps 752 mmHg 92%
    04:00 +21°C° 0 mm 1 mps 752 mmHg 90%
    05:00 +22°C° 0 mm 1 mps 752 mmHg 88%
    06:00 +23°C° 0 mm 1 mps 752 mmHg 85%
    07:00 +25°C° 0,1 mm 1 mps 752 mmHg 81%
    08:00 +26°C° 0,1 mm 1 mps 752 mmHg 76%
    09:00 +28°C° 0,1 mm 1 mps 752 mmHg 71%
    10:00 +28°C° 0,6 mm 1 mps 752 mmHg 68%
    11:00 +29°C° 0,6 mm 1 mps 752 mmHg 65%
    12:00 +30°C° 0,6 mm 1 mps 752 mmHg 62%
    13:00 +30°C° 0,5 mm 1 mps 752 mmHg 61%
    14:00 +30°C° 0,5 mm 1 mps 752 mmHg 61%
    15:00 +30°C° 0,5 mm 1 mps 752 mmHg 60%
    16:00 +30°C° 0,6 mm 1 mps 752 mmHg 66%
    17:00 +29°C° 0,6 mm 1 mps 752 mmHg 71%
    18:00 +28°C° 0,6 mm 1 mps 752 mmHg 77%
    19:00 +27°C° 0,2 mm 1 mps 752 mmHg 79%
    20:00 +25°C° 0,2 mm 1 mps 752 mmHg 82%
    21:00 +24°C° 0,2 mm 1 mps 753 mmHg 85%
    22:00 +23°C° 0 mm 1 mps 753 mmHg 86%
    23:00 +23°C° 0 mm 1 mps 753 mmHg 87%

    25 Junio, Lunes

    Tiempo Temperatura Precipitaciones Viento Presión Humedad
    00:00 +23°C° 0 mm 1 mps 753 mmHg 88%
    01:00 +22°C° 0 mm 1 mps 753 mmHg 89%
    02:00 +22°C° 0 mm 1 mps 753 mmHg 89%
    03:00 +22°C° 0 mm 1 mps 753 mmHg 90%
    04:00 +22°C° 0 mm 1 mps 753 mmHg 88%
    05:00 +23°C° 0 mm 1 mps 754 mmHg 86%
    06:00 +24°C° 0 mm 1 mps 754 mmHg 85%
    07:00 +26°C° 0,4 mm 2 mps 754 mmHg 80%
    08:00 +27°C° 0,4 mm 2 mps 753 mmHg 75%
    09:00 +28°C° 0,4 mm 2 mps 753 mmHg 70%
    10:00 +29°C° 0,4 mm 2 mps 753 mmHg 67%
    11:00 +30°C° 0,4 mm 2 mps 753 mmHg 63%
    12:00 +30°C° 0,4 mm 2 mps 753 mmHg 60%
    13:00 +30°C° 0,1 mm 2 mps 753 mmHg 61%
    14:00 +31°C° 0,1 mm 2 mps 753 mmHg 62%
    15:00 +31°C° 0,1 mm 3 mps 753 mmHg 62%
    16:00 +30°C° 0,5 mm 2 mps 753 mmHg 67%
    17:00 +29°C° 0,5 mm 2 mps 753 mmHg 71%
    18:00 +28°C° 0,5 mm 2 mps 753 mmHg 76%
    19:00 +27°C° 0,1 mm 2 mps 753 mmHg 78%
    20:00 +26°C° 0,1 mm 2 mps 753 mmHg 80%
    21:00 +24°C° 0,1 mm 1 mps 754 mmHg 83%
    22:00 +24°C° 0 mm 1 mps 754 mmHg 83%
    23:00 +23°C° 0 mm 1 mps 753 mmHg 83%

    26 Junio, Martes

    Tiempo Temperatura Precipitaciones Viento Presión Humedad
    00:00 +23°C° 0 mm 1 mps 753 mmHg 84%
    01:00 +22°C° 0,4 mm 1 mps 753 mmHg 86%
    02:00 +21°C° 0,4 mm 2 mps 754 mmHg 87%
    03:00 +20°C° 0,4 mm 2 mps 754 mmHg 89%
    04:00 +21°C° 0,5 mm 2 mps 754 mmHg 88%
    05:00 +23°C° 0,5 mm 2 mps 754 mmHg 88%
    06:00 +23°C° 0,5 mm 2 mps 754 mmHg 87%
    07:00 +25°C° 0,1 mm 2 mps 754 mmHg 82%
    08:00 +26°C° 0,1 mm 3 mps 754 mmHg 78%
    09:00 +27°C° 0,1 mm 4 mps 754 mmHg 74%
    10:00 +28°C° 0,5 mm 3 mps 754 mmHg 72%
    11:00 +28°C° 0,5 mm 3 mps 754 mmHg 69%
    12:00 +29°C° 0,5 mm 3 mps 754 mmHg 67%
    13:00 +29°C° 0,1 mm 3 mps 754 mmHg 65%
    14:00 +29°C° 0,1 mm 3 mps 754 mmHg 64%
    15:00 +29°C° 0,1 mm 3 mps 754 mmHg 62%
    16:00 +29°C° 0,2 mm 3 mps 754 mmHg 66%
    17:00 +28°C° 0,2 mm 3 mps 754 mmHg 70%
    18:00 +28°C° 0,2 mm 2 mps 754 mmHg 75%
    19:00 +26°C° 0 mm 2 mps 754 mmHg 79%
    20:00 +24°C° 0 mm 2 mps 754 mmHg 83%
    21:00 +23°C° 0 mm 2 mps 754 mmHg 87%
    22:00 +21°C° 0 mm 2 mps 754 mmHg 89%
    23:00 +21°C° 0 mm 2 mps 754 mmHg 91%

    27 Junio, Miércoles

    Tiempo Temperatura Precipitaciones Viento Presión Humedad
    00:00 +20°C° 0 mm 2 mps 754 mmHg 93%
    01:00 +20°C° 0 mm 2 mps 754 mmHg 93%
    02:00 +19°C° 0 mm 2 mps 754 mmHg 94%
    03:00 +19°C° 0 mm 2 mps 754 mmHg 95%
    04:00 +20°C° 0 mm 3 mps 754 mmHg 93%
    05:00 +21°C° 0 mm 3 mps 754 mmHg 91%
    06:00 +22°C° 0 mm 3 mps 754 mmHg 89%
    07:00 +24°C° 0,3 mm 3 mps 754 mmHg 85%
    08:00 +25°C° 0,3 mm 4 mps 754 mmHg 81%
    09:00 +27°C° 0,3 mm 4 mps 754 mmHg 77%
    10:00 +27°C° 0,6 mm 3 mps 754 mmHg 73%
    11:00 +28°C° 0,6 mm 3 mps 754 mmHg 69%
    12:00 +29°C° 0,6 mm 3 mps 754 mmHg 65%
    13:00 +29°C° 0,3 mm 3 mps 754 mmHg 63%
    14:00 +29°C° 0,3 mm 3 mps 754 mmHg 62%
    15:00 +30°C° 0,3 mm 3 mps 753 mmHg 60%
    16:00 +29°C° 0,1 mm 3 mps 753 mmHg 64%
    17:00 +28°C° 0,1 mm 3 mps 753 mmHg 69%
    18:00 +28°C° 0,1 mm 3 mps 753 mmHg 73%
    19:00 +26°C° 0 mm 3 mps 753 mmHg 78%
    20:00 +25°C° 0 mm 3 mps 753 mmHg 82%
    21:00 +22°C° 0 mm 3 mps 753 mmHg 86%
    22:00 +22°C° 0 mm 3 mps 754 mmHg 87%
    23:00 +21°C° 0 mm 3 mps 754 mmHg 89%
    Mostrar más